Istanbul, Turkey

10:08 AM +03 on December 09, 2016 (GMT +0300)
Ataturk

Weather History for LTBA - December, 2012

Change the Weather History Date:

Friday, December 21, 2012

  Actual Average Record
Temperature  
Mean Temperature 33 °F -  
Max Temperature 36 °F 47 °F 62 °F (2010)
Min Temperature 30 °F 38 °F 28 °F (2002)
Degree Days  
Heating Degree Days 32    
Moisture  
Dew Point 30 °F    
Average Humidity 89    
Maximum Humidity 100    
Minimum Humidity 73    
Precipitation  
Precipitation 0.00 in - - ()
Sea Level Pressure  
Sea Level Pressure 30.01 in    
Wind  
Wind Speed 12 mph ()    
Max Wind Speed 21 mph    
Max Gust Speed -    
Visibility 3.3 miles    
Events Snow    
Averages and records for this station are not official NWS values.
T = Trace of Precipitation, MM = Missing Value Source: Averaged Metar Reports

Daily Weather History Graph

Daily Weather History Graph

Search for Another Location

Airport or City:

Trip Planner

Search our weather history database for the weather conditions in past years. The results will help you decide how hot, cold, wet, or windy it might be!

Date:

Astronomy

Dec. 21, 2012 Rise Set
Actual Time 7:26 AM EET 4:39 PM EET
Civil Twilight 6:55 AM EET 5:10 PM EET
Nautical Twilight 6:20 AM EET 5:45 PM EET
Astronomical Twilight 5:46 AM EET 6:19 PM EET
Moon 12:19 PM EET (12/21) 12:51 AM EET (12/21)
Length of Visible Light 10h 15m
Length of Day
9h 13m
First Quarter, 62% of the Moon is Illuminated
Dec 21
First Quarter
Dec 28
Full
Jan 5
Last Quarter
Jan 11
New
Jan 19
First Quarter

Hourly Weather History & Observations

Time (EET) Temp. Windchill Dew Point Humidity Pressure Visibility Wind Dir Wind Speed Gust Speed Precip Events Conditions
12:20 AM 30.2 °F 20.2 °F 30.2 °F 100% 29.98 in 1.2 mi NW 12.7 mph - N/A Snow Light Snow
12:50 AM 30.2 °F 20.8 °F 28.4 °F 93% 29.98 in 1.2 mi NW 11.5 mph - N/A Snow Light Snow
1:20 AM 30.2 °F 17.4 °F 28.4 °F 93% 29.98 in 2.2 mi North 20.7 mph - N/A Snow Light Snow
1:50 AM 32.0 °F 20.1 °F 32.0 °F 100% 29.98 in 2.2 mi North 19.6 mph - N/A Snow Light Snow
2:00 AM 31 °F - 29 °F 88% 29.99 in 2 mi North 19.6 mph - - Snow Light Snow
2:20 AM 32.0 °F 21.2 °F 32.0 °F 100% 29.98 in 2.2 mi North 16.1 mph - N/A Snow Light Snow
2:50 AM 32.0 °F 21.6 °F 32.0 °F 100% 29.98 in 2.2 mi NNW 15.0 mph - N/A Snow Light Snow
3:20 AM 32.0 °F 23.6 °F 32.0 °F 100% 29.98 in 2.2 mi NNW 10.4 mph - N/A Snow Light Snow
3:50 AM 32.0 °F 25.6 °F 32.0 °F 100% 30.01 in 2.2 mi NW 6.9 mph - N/A   Mostly Cloudy
4:20 AM 32.0 °F 26.4 °F 32.0 °F 100% 30.01 in 2.2 mi WNW 5.8 mph - N/A Snow Light Snow
4:50 AM 32.0 °F 24.2 °F 32.0 °F 100% 30.01 in 2.2 mi WNW 9.2 mph - N/A Snow Light Snow
5:20 AM 32.0 °F 23.6 °F 32.0 °F 100% 30.01 in 2.2 mi NW 10.4 mph - N/A Snow Light Snow
5:50 AM 32.0 °F 23.0 °F 32.0 °F 100% 30.01 in 2.2 mi NW 11.5 mph - N/A Snow Light Snow
6:20 AM 30.2 °F 21.3 °F 30.2 °F 100% 30.01 in 2.5 mi NW 10.4 mph - N/A Snow Light Snow
6:50 AM 30.2 °F 19.8 °F 30.2 °F 100% 30.01 in 2.5 mi NNW 13.8 mph - N/A Snow Light Snow
7:20 AM 30.2 °F 20.8 °F 30.2 °F 100% 30.04 in 2.5 mi NNW 11.5 mph - N/A Snow Light Snow
7:50 AM 30.2 °F 20.8 °F 30.2 °F 100% 30.04 in - NNW 11.5 mph - N/A   Mostly Cloudy
8:00 AM 31 °F - 31 °F 99% 30.05 in 2 mi NNW 11.5 mph - - Snow Light Snow
8:20 AM 32.0 °F 22.5 °F 30.2 °F 93% 30.04 in - NNW 12.7 mph - N/A   Mostly Cloudy
8:50 AM 32.0 °F 22.1 °F 30.2 °F 93% 30.01 in 2.2 mi NNW 13.8 mph - N/A   Mostly Cloudy
9:20 AM 32.0 °F 22.1 °F 30.2 °F 93% 30.01 in 2.5 mi NNW 13.8 mph - N/A   Mostly Cloudy
9:50 AM 32.0 °F 22.5 °F 30.2 °F 93% 30.04 in 2.2 mi NNW 12.7 mph - N/A   Mostly Cloudy
10:20 AM 33.8 °F 25.3 °F 30.2 °F 87% 30.04 in 2.5 mi NNW 11.5 mph - N/A   Mostly Cloudy
10:50 AM 33.8 °F 25.3 °F 30.2 °F 87% 30.04 in 2.5 mi NNW 11.5 mph - N/A   Mostly Cloudy
11:20 AM 33.8 °F 25.8 °F 30.2 °F 87% 30.01 in 3.7 mi North 10.4 mph - N/A   Mostly Cloudy
11:50 AM 33.8 °F 26.4 °F 30.2 °F 87% 30.01 in 3.7 mi NNW 9.2 mph - N/A   Mostly Cloudy
12:20 PM 33.8 °F 25.3 °F 30.2 °F 87% 30.01 in 4.3 mi NNW 11.5 mph - N/A   Mostly Cloudy
12:50 PM 33.8 °F 25.3 °F 30.2 °F 87% 30.01 in 3.7 mi NNW 11.5 mph - N/A   Mostly Cloudy
1:20 PM 33.8 °F 25.8 °F 30.2 °F 87% 30.01 in 3.7 mi NNW 10.4 mph - N/A   Mostly Cloudy
1:50 PM 33.8 °F 26.4 °F 30.2 °F 87% 30.01 in 3.7 mi NNW 9.2 mph - N/A   Mostly Cloudy
2:00 PM 34 °F - 30 °F 79% 30.03 in 4 mi NNW 9.2 mph - -   Mist
2:20 PM 33.8 °F 27.0 °F 30.2 °F 87% 30.01 in 3.7 mi North 8.1 mph - N/A   Overcast
2:50 PM 35.6 °F 28.6 °F 28.4 °F 75% 30.01 in 4.3 mi North 9.2 mph - N/A   Overcast
3:20 PM 33.8 °F 25.3 °F 28.4 °F 81% 30.01 in 6.2 mi North 11.5 mph - N/A   Overcast
3:50 PM 35.6 °F 28.0 °F 28.4 °F 75% 30.01 in 4.3 mi North 10.4 mph - N/A   Overcast
4:20 PM 35.6 °F 29.2 °F 28.4 °F 75% 30.01 in 3.7 mi NNW 8.1 mph - N/A   Overcast
4:50 PM 33.8 °F 27.0 °F 30.2 °F 87% 30.01 in 3.7 mi NNW 8.1 mph - N/A   Overcast
5:20 PM 33.8 °F 27.0 °F 30.2 °F 87% 30.01 in 4.3 mi North 8.1 mph - N/A   Overcast
5:50 PM 35.6 °F 27.1 °F 28.4 °F 75% 30.01 in 4.3 mi North 12.7 mph - N/A   Overcast
6:20 PM 33.8 °F 24.3 °F 28.4 °F 81% 30.01 in 4.3 mi North 13.8 mph - N/A   Mostly Cloudy
6:50 PM 33.8 °F 24.3 °F 28.4 °F 81% 30.01 in 4.3 mi North 13.8 mph - N/A   Mostly Cloudy
7:20 PM 33.8 °F 25.3 °F 30.2 °F 87% 30.01 in 6.2 mi North 11.5 mph - N/A   Mostly Cloudy
7:50 PM 33.8 °F 24.3 °F 30.2 °F 87% 30.04 in 3.7 mi North 13.8 mph - N/A   Mostly Cloudy
8:00 PM 35 °F - 29 °F 73% 30.04 in 4 mi North 13.8 mph - -   Mist
8:20 PM 33.8 °F 23.9 °F 30.2 °F 87% 30.04 in 6.2 mi North 15.0 mph - N/A   Mostly Cloudy
8:50 PM 33.8 °F 24.3 °F 30.2 °F 87% 30.01 in 3.7 mi North 13.8 mph - N/A   Mostly Cloudy
9:20 PM 35.6 °F 26.6 °F 28.4 °F 75% 30.01 in 3.7 mi North 13.8 mph - N/A   Mostly Cloudy
9:50 PM 35.6 °F 26.6 °F 28.4 °F 75% 30.04 in 3.7 mi North 13.8 mph - N/A   Mostly Cloudy
10:20 PM 33.8 °F 23.9 °F 28.4 °F 81% 30.04 in 3.7 mi North 15.0 mph - N/A   Mostly Cloudy
10:50 PM 35.6 °F 26.2 °F 28.4 °F 75% 30.04 in 4.3 mi North 15.0 mph - N/A   Mostly Cloudy
11:20 PM 33.8 °F 23.9 °F 28.4 °F 81% 30.04 in 6.2 mi North 15.0 mph - N/A   Mostly Cloudy
11:50 PM 33.8 °F 23.9 °F 28.4 °F 81% 30.04 in 3.7 mi North 15.0 mph - N/A   Mostly Cloudy